[[{"header":{"parameterUnit":"m.s-1","parameterCategory":1,"la1":30.2991,"la2":30.254,"lo1":-89.0895,"lo2":-89.0444,"dy":0.0017,"dx":0.0017,"nx":28,"ny":28,"refTime":"2025-03-09T09:00:00:Z","depth":0,"parameterNumber":2,"parameterNumberName":"U-component_of_WINDS"},"data":[0,0,0,0,0,0,0,0,0,0,0,0,0,0,0,0,0,0,0,0,0,0,0,0,0,0,0,0,0,0,0,0,0,0,0,0,0,0,0,0,0,0,0,0,0,0,0,0,0,0,0,0,0,0,0,0,0,0,2.0942,2.0943,0,2.0967,2.0967,2.0968,2.0935,2.0934,2.0933,2.0932,2.0961,2.0963,2.0965,0,0,0,0,0,0,0,0,0,0,0,0,0,2.0873,2.0875,2.0942,2.0943,2.0943,2.0967,2.0967,2.0968,2.0936,2.0934,2.0933,2.0931,2.096,2.0963,2.0965,0,0,0,0,0,0,0,0,0,0,0,0,0,2.0901,2.0875,2.0942,2.093,2.0929,2.0967,2.0967,2.0968,2.0936,2.0934,2.0932,2.0931,2.096,2.0962,2.0965,2.1018,0,0,2.0974,2.0975,0,0,0,0,0,0,0,0,2.09,2.0904,2.0931,2.0931,2.093,2.0946,2.0954,2.0985,2.0936,2.0933,2.0932,2.093,2.0958,2.0961,2.0969,2.1019,2.1021,2.0974,2.0976,2.0977,2.0978,0,0,0,0,0,0,0,2.0898,2.0903,2.0952,2.0932,2.0931,2.0925,2.0927,2.0959,2.0955,2.0933,2.0931,2.0934,2.0957,2.0967,2.097,2.1021,2.0974,2.0977,2.0978,2.0979,2.1119,2.1121,0,0,0,0,0,0,2.0897,2.0901,2.0951,2.0953,2.091,2.0928,2.093,2.0943,2.0955,2.0955,2.0936,2.0933,2.0963,2.0967,2.0971,2.1035,2.0977,2.098,2.0981,2.1117,2.112,2.1122,0,0,0,0,0,0,2.0895,2.0902,2.095,2.0927,2.0932,2.0931,2.0946,2.0944,2.0954,2.0957,2.0956,2.0946,2.0961,2.0967,2.1007,2.1036,2.0981,2.0983,2.1115,2.1118,2.1121,2.1164,0,0,0,0,0,0,2.0894,2.0901,2.092,2.0927,2.0934,2.0985,2.0947,2.0946,2.0958,2.0954,2.0966,2.0966,2.0961,2.1003,2.101,2.1039,2.0986,2.1112,2.1116,2.112,2.116,2.1168,2.1175,0,0,0,0,0,2.0891,2.0931,2.0921,2.0927,2.0957,2.0986,2.099,2.0982,2.096,2.098,2.0983,2.0966,2.1031,2.1007,2.1015,2.1045,2.111,2.1115,2.112,2.1157,2.1167,2.1175,0,0,0,0,0,0,2.0928,2.0932,2.092,2.0963,2.0975,2.0981,2.1005,2.0992,2.101,2.1006,2.0996,2.0999,2.1043,2.1048,2.1021,2.1099,2.1068,2.1074,2.1094,2.1103,2.111,2.1109,2.0988,0,0,0,0,0,2.0941,2.0963,2.0966,2.1004,2.101,2.1007,2.1019,2.1012,2.1024,2.1029,2.1034,2.1047,2.1071,2.1087,2.1109,2.1161,2.1164,2.1185,2.1193,2.1199,2.1205,2.1236,2.1246,2.1137,2.1137,2.1137,0,0,2.0968,2.0973,2.0988,2.1012,2.1019,2.1045,2.1011,2.1039,2.1058,2.1033,2.1072,2.1076,2.1091,2.1138,2.1159,2.1144,2.1236,2.1205,2.121,2.1213,2.1242,2.1252,2.1261,2.114,2.1139,2.1139,0,0,2.1032,2.1036,2.107,2.1078,2.1091,2.1088,2.1097,2.1105,2.1107,2.1145,2.1128,2.1152,2.1192,2.1205,2.1216,2.1287,2.1273,2.1294,2.1334,2.1364,2.1373,2.1381,2.1408,2.1418,2.13,2.13,2.13,0,2.1065,2.11,2.1089,2.1118,2.1131,2.1109,2.1144,2.1153,2.1173,2.1183,2.1165,2.1217,2.1225,2.1276,2.1294,2.1303,2.1314,2.1293,2.1372,2.138,2.1387,2.1413,2.1423,2.1302,2.1302,2.1302,2.1302,0,2.1142,2.1167,2.1193,2.1212,2.1227,2.1259,2.1255,2.1272,2.1264,2.1264,2.1305,2.1314,2.1339,2.135,2.1343,2.1401,2.1392,2.1373,2.1343,2.14,2.1425,2.1435,2.1306,2.1305,2.1305,2.1304,0,0,2.1228,2.1241,2.1251,2.1261,2.1273,2.1294,2.1327,2.135,2.1366,2.138,2.141,2.1445,2.1429,2.1442,2.1436,2.1462,2.1521,2.1441,2.1441,2.1458,2.159,2.1605,2.1617,2.1512,2.1514,2.1515,2.1589,0,2.1293,2.1348,2.134,2.1394,2.1419,2.1399,2.1428,2.1441,2.1443,2.1466,2.1469,2.1496,2.1471,2.1479,2.1504,2.1509,2.1548,2.1503,2.1541,2.1543,2.154,2.1629,2.1645,2.1714,2.1599,2.16,2.1601,0,2.1376,2.1394,2.145,2.1461,2.1471,2.1497,2.152,2.1541,2.1556,2.1556,2.1572,2.1561,2.1597,2.1565,2.1615,2.1585,2.16,2.1606,2.1608,2.1613,2.1577,2.1638,2.1736,2.1747,2.1616,2.1615,2.1614,0,2.1437,2.1474,2.1513,2.1522,2.1535,2.1554,2.1561,2.1574,2.159,2.161,2.162,2.1644,2.1658,2.1678,2.1676,2.1652,2.1729,2.1696,2.1732,2.1733,2.175,2.175,2.1854,2.1757,2.1757,2.1757,2.1757,0,2.1511,2.1547,2.1541,2.1566,2.1606,2.1597,2.1639,2.1643,2.1655,2.1682,2.1667,2.1693,2.1687,2.1714,2.1713,2.1757,2.1762,2.1765,2.1765,2.1768,2.1768,2.1779,2.1775,2.1759,2.1759,2.1758,2.1758,0,2.1586,2.1583,2.1625,2.1635,2.1638,2.1668,2.1677,2.1702,2.1702,2.1737,2.1745,2.1747,2.1778,2.1778,2.1813,2.1812,2.1867,2.186,2.1862,2.1861,2.1899,2.1896,2.2015,2.2032,2.1922,2.1923,2.1924,0,2.1635,2.1662,2.1674,2.1691,2.1699,2.1725,2.1741,2.1734,2.1752,2.1772,2.1795,2.1824,2.1847,2.1898,2.1905,2.1932,2.1927,2.1967,2.1931,2.1935,2.1931,2.193,2.1934,2.1975,2.1976,2.1977,2.1978,0,2.1722,2.172,2.1742,2.1765,2.1784,2.1802,2.1819,2.1834,2.1829,2.185,2.1881,2.1899,2.1935,2.1966,2.1993,2.2002,2.1991,2.1989,2.1999,2.2004,2.2005,2.2007,2.1883,2.1986,2.1986,2.1985,2.1984,2.1984,2.1787,2.1811,2.1825,2.1851,2.1863,2.1879,2.1903,2.1907,2.1932,2.1961,2.1956,2.1991,2.2008,2.2044,2.2056,2.2085,2.2071,2.2086,2.209,2.2094,2.21,2.1998,2.209,2.209,2.2089,2.2089,2.2089,0,2.1876,2.1884,2.1908,2.1931,2.1953,2.1938,2.1957,2.1976,2.2007,2.2023,2.2047,2.2084,2.2114,2.2123,2.2153,2.2175,2.2171,2.2184,2.2183,2.2186,2.2109,2.2098,2.2187,2.2187,2.2187,2.2187,2.2187,2.2187,2.1925,2.1966,2.1966,2.2014,2.2022,2.2055,2.2067,2.2084,2.2097,2.2139,2.2163,2.2168,2.2183,2.2214,2.2242,2.2244,2.2257,2.2273,2.2273,2.2201,2.2191,2.2182,2.2172,2.2275,2.2275,2.2348,2.2349,2.2349]},{"header":{"parameterUnit":"m.s-1","parameterCategory":1,"la1":30.2991,"la2":30.254,"lo1":-89.0895,"lo2":-89.0444,"dy":0.0017,"dx":0.0017,"nx":28,"ny":28,"refTime":"2025-03-09T09:00:00:Z","depth":0,"parameterNumber":3,"parameterNumberName":"V-component_of_WINDS"},"data":[0,0,0,0,0,0,0,0,0,0,0,0,0,0,0,0,0,0,0,0,0,0,0,0,0,0,0,0,0,0,0,0,0,0,0,0,0,0,0,0,0,0,0,0,0,0,0,0,0,0,0,0,0,0,0,0,0,0,-2.1659,-2.1659,0,-2.1594,-2.1593,-2.1592,-2.1583,-2.1584,-2.1585,-2.1585,-2.1514,-2.1512,-2.1509,0,0,0,0,0,0,0,0,0,0,0,0,0,-2.1773,-2.1771,-2.1659,-2.1659,-2.1658,-2.1594,-2.1593,-2.1592,-2.1583,-2.1584,-2.1585,-2.1585,-2.1515,-2.1512,-2.1509,0,0,0,0,0,0,0,0,0,0,0,0,0,-2.1717,-2.177,-2.166,-2.1646,-2.1644,-2.1594,-2.1593,-2.1592,-2.1583,-2.1584,-2.1585,-2.1586,-2.1516,-2.1512,-2.1509,-2.1467,0,0,-2.1497,-2.1496,0,0,0,0,0,0,0,0,-2.172,-2.1713,-2.1649,-2.1647,-2.1644,-2.1598,-2.1607,-2.155,-2.1583,-2.1606,-2.1585,-2.1586,-2.1541,-2.1535,-2.1521,-2.1463,-2.146,-2.1497,-2.1495,-2.1493,-2.1492,0,0,0,0,0,0,0,-2.1724,-2.1715,-2.1633,-2.1648,-2.1645,-2.1641,-2.1634,-2.1596,-2.1569,-2.1604,-2.1603,-2.1596,-2.154,-2.1524,-2.1519,-2.1459,-2.1497,-2.1494,-2.1491,-2.149,-2.1361,-2.136,0,0,0,0,0,0,-2.1731,-2.1719,-2.1635,-2.1631,-2.1685,-2.1639,-2.1631,-2.1612,-2.1569,-2.1564,-2.1595,-2.1596,-2.153,-2.1523,-2.1516,-2.1462,-2.1493,-2.149,-2.1487,-2.1362,-2.1361,-2.136,0,0,0,0,0,0,-2.1733,-2.1724,-2.1638,-2.1675,-2.1664,-2.1636,-2.1614,-2.161,-2.1594,-2.1563,-2.1557,-2.1584,-2.1531,-2.1522,-2.1479,-2.146,-2.1488,-2.1485,-2.1364,-2.1362,-2.136,-2.1356,0,0,0,0,0,0,-2.1737,-2.1725,-2.1709,-2.1675,-2.1662,-2.1603,-2.1613,-2.1608,-2.1588,-2.1588,-2.1551,-2.1546,-2.1531,-2.1484,-2.1475,-2.1455,-2.1482,-2.1365,-2.1363,-2.1361,-2.1357,-2.1354,-2.1351,0,0,0,0,0,-2.1741,-2.1711,-2.1709,-2.1699,-2.1643,-2.1602,-2.1594,-2.1579,-2.1587,-2.157,-2.155,-2.1547,-2.1464,-2.148,-2.1469,-2.1448,-2.1366,-2.1364,-2.1361,-2.1359,-2.1355,-2.1351,0,0,0,0,0,0,-2.1743,-2.1706,-2.1703,-2.1661,-2.1635,-2.1601,-2.158,-2.1575,-2.1545,-2.1546,-2.1527,-2.1519,-2.1476,-2.1458,-2.1477,-2.1404,-2.1416,-2.1411,-2.1417,-2.1413,-2.141,-2.1415,-2.1479,0,0,0,0,0,-2.1739,-2.171,-2.1679,-2.1645,-2.1632,-2.1608,-2.159,-2.158,-2.1551,-2.154,-2.1516,-2.1487,-2.1454,-2.1433,-2.1401,-2.1355,-2.1345,-2.1335,-2.1332,-2.133,-2.1325,-2.1297,-2.1291,-2.1351,-2.1351,-2.1351,0,0,-2.173,-2.1706,-2.1689,-2.1644,-2.1623,-2.1592,-2.1598,-2.1566,-2.1542,-2.1534,-2.1492,-2.1474,-2.144,-2.1395,-2.1373,-2.1378,-2.1306,-2.1326,-2.1324,-2.1321,-2.1293,-2.1288,-2.1283,-2.1349,-2.1349,-2.135,0,0,-2.1697,-2.1677,-2.1645,-2.1623,-2.159,-2.1575,-2.1567,-2.1533,-2.152,-2.1478,-2.1471,-2.1442,-2.1386,-2.1362,-2.1342,-2.1298,-2.1293,-2.1288,-2.1271,-2.1244,-2.1239,-2.1235,-2.1217,-2.1211,-2.1284,-2.1284,-2.1284,0,-2.1689,-2.1643,-2.1629,-2.1596,-2.1576,-2.1568,-2.1534,-2.1514,-2.1472,-2.1457,-2.1464,-2.1392,-2.1369,-2.1317,-2.1306,-2.1292,-2.128,-2.1292,-2.1242,-2.1237,-2.1233,-2.1216,-2.1209,-2.1284,-2.1284,-2.1284,-2.1284,0,-2.1634,-2.1602,-2.1581,-2.1541,-2.1518,-2.1485,-2.1464,-2.1443,-2.1435,-2.1417,-2.1373,-2.1345,-2.1306,-2.1294,-2.1285,-2.1239,-2.1243,-2.1246,-2.1257,-2.1227,-2.121,-2.1204,-2.1283,-2.1283,-2.1283,-2.1283,0,0,-2.1601,-2.1553,-2.1545,-2.1526,-2.1489,-2.1463,-2.1429,-2.1392,-2.1373,-2.1344,-2.1313,-2.1266,-2.1268,-2.1245,-2.1234,-2.1211,-2.1175,-2.1216,-2.1214,-2.1207,-2.112,-2.1117,-2.1109,-2.1172,-2.1171,-2.117,-2.1122,0,-2.1562,-2.1502,-2.1487,-2.1435,-2.1404,-2.1396,-2.1366,-2.1339,-2.1321,-2.1291,-2.1272,-2.1238,-2.1244,-2.123,-2.1206,-2.1184,-2.1156,-2.1188,-2.1141,-2.1139,-2.1148,-2.1101,-2.1098,-2.1054,-2.1115,-2.1114,-2.1114,0,-2.1509,-2.1479,-2.1424,-2.1389,-2.1376,-2.1349,-2.1313,-2.1285,-2.1253,-2.1242,-2.1217,-2.1208,-2.1169,-2.1183,-2.1129,-2.115,-2.113,-2.1116,-2.1114,-2.1108,-2.1124,-2.1092,-2.104,-2.1033,-2.1104,-2.1104,-2.1105,0,-2.1487,-2.1434,-2.1394,-2.1378,-2.1337,-2.1318,-2.1299,-2.1269,-2.1247,-2.1215,-2.12,-2.1164,-2.1143,-2.1115,-2.1095,-2.1107,-2.1041,-2.1054,-2.1029,-2.1029,-2.1015,-2.1015,-2.0957,-2.1005,-2.1005,-2.1005,-2.1005,0,-2.1445,-2.1411,-2.1383,-2.1358,-2.1319,-2.1302,-2.1263,-2.1244,-2.1217,-2.1187,-2.1177,-2.1148,-2.1125,-2.1093,-2.1077,-2.1033,-2.1024,-2.1013,-2.1009,-2.1013,-2.1014,-2.0998,-2.1,-2.1003,-2.1004,-2.1004,-2.1004,0,-2.1414,-2.1395,-2.135,-2.1314,-2.1304,-2.1277,-2.1246,-2.122,-2.1202,-2.1164,-2.1154,-2.1126,-2.1087,-2.1065,-2.1016,-2.1005,-2.0955,-2.0954,-2.0966,-2.0964,-2.094,-2.0942,-2.0868,-2.0857,-2.0913,-2.0913,-2.0913,0,-2.1388,-2.1361,-2.1323,-2.1302,-2.1284,-2.1251,-2.1229,-2.121,-2.1187,-2.1147,-2.1126,-2.1087,-2.1054,-2.0992,-2.0966,-2.0928,-2.0924,-2.0901,-2.0918,-2.0922,-2.0921,-2.0922,-2.0918,-2.0898,-2.0897,-2.0897,-2.0896,0,-2.1341,-2.1333,-2.1302,-2.1266,-2.124,-2.1211,-2.1182,-2.1165,-2.1141,-2.1115,-2.1076,-2.1051,-2.1,-2.0961,-2.092,-2.0899,-2.0893,-2.0891,-2.0883,-2.0886,-2.0894,-2.0887,-2.0956,-2.0893,-2.0893,-2.0893,-2.0894,-2.0894,-2.1311,-2.1286,-2.1255,-2.122,-2.1196,-2.1169,-2.1142,-2.1121,-2.1089,-2.1047,-2.1037,-2.0995,-2.0962,-2.0907,-2.0885,-2.085,-2.0854,-2.0843,-2.084,-2.0837,-2.0835,-2.0901,-2.0843,-2.0843,-2.0843,-2.0843,-2.0843,0,-2.1262,-2.1242,-2.121,-2.1169,-2.1141,-2.1139,-2.1106,-2.1082,-2.1046,-2.1016,-2.0984,-2.0937,-2.0898,-2.0869,-2.0829,-2.0806,-2.0802,-2.0796,-2.0797,-2.0791,-2.0835,-2.0845,-2.08,-2.08,-2.08,-2.08,-2.08,-2.08,-2.1234,-2.1191,-2.1179,-2.1124,-2.1103,-2.1062,-2.1043,-2.1017,-2.0993,-2.0942,-2.091,-2.0891,-2.0861,-2.0818,-2.0781,-2.0774,-2.0758,-2.0752,-2.0744,-2.0784,-2.0789,-2.0793,-2.0803,-2.075,-2.075,-2.0703,-2.0703,-2.0702]}]]